Weather in Jacksonville Beach

United States     30°17′02″N   81°23′46″W
temp.,
°C
wind,
m/s
gust,
m/s
humid.,
%
clouds,
%
prec.,
mm/h
press.,
hPa
HPBL,
m
17 may, mon
mon1723:00+20e376388 0.0 1023413
02:00+19e22715 0.0 102249
05:00+18e237511 0.0 102152
08:00+22e25607 0.0 1022703
11:00+26e464075 0.0 10231515
14:00+27e564380 0.0 10221803
17:00+24e566292 0.3 10211257
20:00+23ese376323 0.4 10221015
18 may, tue
tue1823:00+22e386897 0.0 1022676
02:00+21e487129 0.0 1022694
05:00+21ese387164 0.0 1021621
08:00+23ese476329 0.0 10231276
11:00+26ese57485 0.0 10241615
14:00+27e67465 0.0 10231686
17:00+26e57505 0.0 10221601
20:00+23e476310 0.0 10221051
19 may, wed
wed1923:00+22e48685 0.0 1023939
02:00+22e48705 0.0 1022827
05:00+21e497049 0.0 1021731
08:00+23ene486373 0.0 10231172
11:00+26e56487 0.0 10241538
14:00+28e664833 0.0 10231716
17:00+26e575835 0.2 10221396
20:00+23e48735 0.5 1023925
20 may, thu
thu2023:00+23ese496834 0.1 10241008
02:00+22ese410717 0.2 1023782
05:00+22e496613 0.0 1023911
08:00+23e585788 0.0 10241567
11:00+26e684663 0.0 10261928
14:00+27e68437 0.0 10251839
17:00+26e684751 0.0 10241872
20:00+23e48607 0.0 10251300
21 may, fri
fri2123:00+22e48637 0.0 10261068
02:00+22e486299 0.1 10251181
05:00+22e4866100 0.1 10251098
08:00+23e486290 0.1 10261428
11:00+26e585183 0.1 10271718
14:00+27e684970 0.1 10271831
17:00+27e585023 0.0 10261735
20:00+24e47636 0.1 1026969